Location: The Saddle
(36.8333°N, 80.3417°W)
Time: 04:38:04
(UTC-04:00)

Tiros 1 - Pass Details

Date: 30 January 2022
Orbit: 630 x 663 km, 48.4° (Epoch: 29 May)

Event Time Altitude Azimuth Distance (km) Brightness Sun altitude
Rises 19:59:01 0° 222° (SW) 2,969 11.2 -27.0°
Reaches altitude 10° 20:01:22 10° 218° (SW) 2,064 10.2 -27.5°
Enters shadow 20:04:14 35° 202° (SSW) 1,069 8.4 -28.1°
